THURAYA-3

Last updated on Sat Dec 13 2025 00:02:46 GMT+0000 (Coordinated Universal Time)

1 32404U 08001A 25346.08186603 -.00000296 00000+0 00000+0 0 9990 2 32404 5.6736 35.4237 0002513 226.8124 306.7659 1.00272724 65611
UTC large
Height (km)
Speed (km/s)
/
Latitude / Longitude
Inclination (degrees)
Orbital Period (minutes)
Azimuth
Elevation
Range (km)
Doppler Factor

Next 0 passes for location: London (51.5072 / 0.1276)

Sorry there are no passes over London.